Simultaneous Nadir Overpasses (SNOs) Predictions

Prediction of SNOs between METOP-A and NOAA-19 Satellite Orbit:

Table of predicted SNOs for the next 14.0 days since TLE Epoch: 1/25/2014
Index Date (METOP-A) Time (METOP-A) Lat,Lon (METOP-A) SZA (METOP-A ) Date (NOAA-19) Time (NOAA-19) Lat,Lon (NOAA-19) SZA (NOAA-19 ) Distance(km) Time Diff (sec)
1 01/26/2014 14:13:49 73.86, -39.51 92.60 01/26/2014 14:12:43 73.87, -39.52 92.63 1.31 66
2 01/26/2014 15:04:31 -73.83, 127.74 87.44 01/26/2014 15:03:38 -73.85, 127.81 87.42 3.09 53
3 01/26/2014 15:55:11 73.84, -64.90 92.56 01/26/2014 15:54:46 73.82, -64.91 92.55 1.80 25
4 01/26/2014 16:45:53 -73.80, 102.34 87.48 01/26/2014 16:45:41 -73.79, 102.42 87.49 2.57 12
5 01/26/2014 17:36:34 73.76, -90.42 92.48 01/26/2014 17:36:49 73.77, -90.30 92.48 3.56 15
6 01/26/2014 18:27:15 -73.78, 76.95 87.52 01/26/2014 18:27:45 -73.79, 76.91 87.51 1.89 30
7 01/26/2014 19:17:56 73.74,-115.81 92.44 01/26/2014 19:18:53 73.77,-115.82 92.46 3.14 57
8 01/26/2014 20:08:37 -73.76, 51.56 87.56 01/26/2014 20:09:48 -73.74, 51.52 87.58 2.04 71
9 02/05/2014 17:29:23 73.91, -88.30 89.82 02/05/2014 17:28:13 73.91, -88.39 89.84 2.66 70
10 02/05/2014 18:20:05 -73.89, 78.98 90.21 02/05/2014 18:19:09 -73.87, 78.96 90.22 2.12 56
11 02/05/2014 19:10:46 73.84,-113.82 89.73 02/05/2014 19:10:16 73.86,-113.78 89.76 2.69 30
12 02/05/2014 20:01:28 -73.82, 53.46 90.30 02/05/2014 20:01:12 -73.82, 53.57 90.30 3.30 16
13 02/05/2014 20:52:08 73.81,-139.22
